Temperature
8 7 7 7 7 8 8 7 7 7 8 7 6 7 7 8 7 7 8 8 9 9 10 9 9 9 9 9 9 9 9 9 9 9 9 9 9 9 9 9 9 9 9 9
7 7 8 8 7 7 7 7 7 7 7 7 6 6 7 7 7 7 7 8 8 9 9 9 9 9 9 9 9 9 8 9 9 8 8 8 8 8 8 8 8 8 8 9
8 8 8 8 7 7 7 7 7 7 7 7 6 6 7 7 7 7 8 8 8 9 9 9 9 9 9 9 8 8 8 8 8 8 8 8 8 8 8 8 8 8 8 8
7 7 8 8 7 7 7 7 7 7 6 5 6 6 7 7 6 6 7 7 8 8 9 9 9 8 8 8 8 8 8 8 8 8 8 8 8 8 8 8 8 8 8 8
7 7 7 7 8 7 7 7 7 7 6 5 5 5 6 6 7 7 6 7 8 8 8 8 8 8 8 8 8 8 8 8 8 8 8 8 7 7 7 7 8 8 7 8
6 7 7 7 7 7 7 6 6 5 5 6 6 5 6 5 7 7 7 7 7 8 8 8 8 8 8 8 8 7 7 7 7 7 7 7 7 7 7 7 7 7 7 7
7 7 7 7 7 7 7 6 6 6 5 6 5 5 6 6 6 6 6 7 7 8 8 8 8 8 8 7 7 7 7 7 7 7 7 7 7 7 6 6 7 7 7 7
6 6 7 6 7 6 6 7 6 7 6 5 5 5 6 6 6 7 7 7 7 7 7 7 7 7 7 7 7 7 7 7 6 6 6 6 6 6 6 6 6 6 7 7
5 6 6 7 7 7 6 6 6 5 5 4 5 5 5 6 6 6 6 6 7 7 7 7 7 7 7 7 7 7 6 6 6 6 6 6 6 6 6 6 6 6 6 6
5 5 6 6 6 6 6 5 4 5 6 6 6 5 5 6 6 5 5 5 6 7 7 7 7 7 7 7 6 6 6 6 6 6 5 5 5 5 5 5 5 6 6 6
5 4 5 5 5 5 5 5 5 4 4 5 5 6 6 6 6 5 5 6 6 7 7 7 7 6 6 6 6 6 6 6 5 5 5 5 5 5 5 5 5 5 5 5
3 3 3 4 5 5 5 5 4 5 4 3 4 5 6 5 5 5 5 6 6 7 7 7 6 6 6 6 6 5 5 5 5 5 5 5 5 5 4 5 5 5 5 5
3 3 4 5 5 4 4 4 4 4 3 3 3 5 6 5 5 5 5 6 6 6 6 6 6 6 6 6 5 5 5 5 5 5 5 4 4 4 4 4 4 4 4 5
4 2 3 4 5 4 3 4 3 3 3 3 3 4 5 5 5 5 5 6 6 6 6 6 6 6 6 5 5 5 5 5 5 5 4 4 4 4 4 4 4 4 4 4
3 2 2 2 3 3 3 3 3 3 3 3 4 4 5 5 4 5 5 5 5 5 5 5 5 5 5 5 5 5 5 5 4 4 4 4 4 4 4 4 4 4 4 4
1 1 1 2 3 2 3 3 3 3 3 3 3 4 4 5 5 4 5 5 4 5 5 5 5 5 5 5 5 5 4 4 4 4 4 4 4 4 4 3 3 3 3 3
0 0 1 1 2 2 2 3 3 3 3 3 3 4 4 3 3 4 4 4 4 5 5 5 5 5 5 5 5 4 4 4 4 4 4 3 3 3 3 3 3 3 3 3
-0 -0 0 1 1 1 3 3 3 3 3 3 3 3 3 3 4 5 5 5 5 5 5 5 5 5 5 4 4 4 4 4 4 3 3 3 3 3 3 3 3 3 3 3
-0 0 0 0 0 1 2 2 2 2 2 2 2 2 2 2 3 4 5 4 4 4 5 5 5 4 4 4 4 4 4 4 3 3 3 3 3 3 2 2 2 2 2 2
-0 -0 -0 -0 1 2 2 2 2 2 2 2 1 1 1 1 1 3 4 4 4 4 4 4 4 4 4 4 4 3 3 3 3 3 2 2 2 2 2 2 2 2 2 2
-1 -1 -1 -1 -0 1 1 1 2 2 2 2 2 2 1 1 2 3 3 3 3 4 4 4 4 3 3 3 3 3 3 3 2 2 2 2 2 2 2 2 2 2 2 1
-1 -1 -1 -1 -1 0 0 0 0 1 2 2 2 2 1 1 2 2 2 3 3 3 3 3 3 3 3 2 2 2 2 2 2 2 2 1 1 1 1 1 1 1 1 1
-1 -1 -1 -1 0 1 1 1 1 1 1 1 1 1 1 1 1 1 1 2 2 2 2 2 2 2 2 1 1 1 1 1 1 1 1 1 1 1 1 1 1 0 0 0
-2 -2 -2 -2 -1 -1 -0 0 0 0 0 1 1 1 1 1 1 1 1 1 1 1 1 1 1 1 1 1 1 1 1 1 1 1 0 0 0 0 0 0 -0 -0 -0 -0
-2 -3 -3 -2 -2 -1 -0 -0 -0 -0 -0 0 0 0 0 0 0 0 -0 0 0 0 0 0 0 0 0 -0 -0 -0 -0 -0 0 -0 -0 -0 -0 -0 -0 -0 -1 -1 -1 -1
-3 -3 -3 -2 -2 -2 -1 -1 -1 -1 -1 -1 -1 -1 -0 -0 -1 -1 -1 -0 -0 -0 -0 -0 -0 -0 -1 -1 -1 -1 -1 -1 -1 -1 -1 -1 -1 -1 -1 -1 -1 -1 -1 -1
Wind_Speed
2 3 3 6 7 3 2 3 6 6 3 3 7 12 13 8 5 7 7 7 6 7 6 4 2 1 0 0 1 1 0 1 2 2 1 2 2 2 1 1 2 2 2 3
2 4 6 3 3 3 3 4 6 5 2 3 7 12 10 7 5 6 6 6 6 5 5 3 2 1 1 1 1 1 1 1 1 1 2 1 2 2 2 1 2 2 2 3
6 4 2 3 2 3 5 6 6 5 5 3 5 9 5 3 2 3 4 4 4 4 4 3 2 1 1 1 1 2 2 2 2 2 2 2 2 2 1 1 1 1 1 2
4 4 2 3 4 5 6 6 6 4 3 5 2 6 7 4 5 4 5 4 4 4 3 3 2 2 2 2 1 1 1 1 2 3 3 4 3 2 2 2 1 1 1 2
4 3 3 4 5 6 6 2 3 3 3 4 2 3 9 3 5 6 5 4 4 4 3 3 2 2 2 1 1 0 1 1 1 2 3 4 3 2 2 2 3 1 1 2
4 3 4 4 2 4 2 2 2 3 2 4 4 5 8 4 5 5 4 3 4 4 3 3 2 1 1 1 0 0 1 1 1 2 2 3 4 3 4 3 3 2 1 1
4 3 2 2 1 1 2 3 3 4 2 6 3 4 9 7 5 5 5 5 4 3 2 2 2 1 1 1 1 0 1 1 1 2 2 2 3 4 4 4 4 3 2 1
2 6 4 3 4 4 4 5 5 4 5 5 2 7 8 5 4 4 4 3 2 3 2 2 2 2 2 2 1 1 1 1 1 2 1 1 2 2 2 3 3 3 3 2
3 6 2 2 2 6 4 4 4 4 2 4 6 7 8 3 3 3 3 2 3 3 3 3 2 2 2 2 2 2 2 1 2 2 2 2 2 2 2 2 2 2 2 2
3 4 4 2 1 1 3 5 4 4 3 5 6 6 5 5 5 4 3 4 4 4 3 3 3 2 2 2 2 2 2 2 2 2 3 2 2 2 2 2 2 2 2 2
1 3 4 2 4 6 3 3 3 3 3 4 5 7 6 7 5 4 5 5 5 4 5 4 3 2 2 1 2 2 2 2 2 2 2 2 2 1 1 2 2 2 2 2
0 2 4 7 5 3 5 5 6 4 5 4 4 8 4 3 3 3 5 5 5 5 4 4 3 2 2 2 2 2 2 3 2 2 2 2 2 2 2 2 2 2 2 2
1 1 3 5 2 1 1 2 2 1 2 5 5 8 3 4 5 4 5 5 5 5 4 3 3 2 2 2 2 3 3 3 3 2 3 2 2 2 2 2 1 1 2 2
1 3 6 8 5 3 6 6 4 4 5 7 10 11 11 9 9 8 7 6 5 5 4 4 4 3 3 3 3 3 3 3 3 3 3 3 2 2 2 1 2 2 2 2
1 5 7 9 8 7 10 11 9 9 10 10 11 12 13 10 9 8 7 6 4 4 5 5 4 4 3 2 2 2 2 2 3 3 3 2 2 2 1 1 1 2 2 3
2 4 4 8 8 8 11 13 13 12 10 11 13 15 11 9 7 7 6 6 6 6 6 5 4 4 3 3 3 2 2 2 3 3 2 2 1 1 1 1 1 1 1 2
4 4 3 7 5 5 10 11 12 9 8 8 12 12 6 6 8 8 7 6 7 7 6 5 5 4 4 4 4 4 3 2 3 2 2 1 1 1 1 1 1 1 1 2
6 5 4 4 2 9 8 2 5 7 7 6 7 7 6 8 9 7 5 5 6 6 5 5 4 3 3 3 2 2 2 3 3 2 1 1 1 1 1 1 1 1 1 2
8 6 4 3 5 9 7 3 2 4 6 2 5 8 7 7 6 6 3 3 5 5 4 4 3 3 2 2 2 3 2 2 2 2 1 1 1 1 1 1 1 1 0 0
2 3 4 4 5 7 4 5 4 2 5 3 5 7 7 5 4 6 5 4 4 3 2 1 0 1 1 1 2 3 3 2 1 1 1 1 1 1 1 1 1 0 0 0
1 2 5 6 7 7 4 5 2 2 6 7 5 6 5 4 6 6 5 4 3 2 2 1 2 2 1 1 3 3 2 1 1 1 1 1 1 1 1 1 1 1 1 1
4 3 4 4 5 7 3 2 2 5 6 6 7 6 5 6 7 5 4 3 3 3 3 3 2 2 2 2 3 3 1 0 1 2 2 1 1 1 2 2 2 2 2 2
5 5 4 6 6 5 3 4 5 4 6 6 6 7 5 5 5 4 3 3 3 3 3 2 2 2 2 2 2 2 0 1 2 3 2 2 2 2 2 2 2 2 1 1
4 2 3 6 8 8 7 6 6 6 7 7 6 6 4 4 4 3 3 3 3 3 2 2 3 3 3 3 2 1 1 2 3 3 2 2 3 3 3 2 1 1 0 0
5 2 4 8 8 8 7 6 7 7 7 6 6 5 4 3 3 2 2 2 2 2 2 2 2 2 2 3 3 3 2 3 3 3 2 2 2 2 3 2 2 1 1 1
3 4 5 8 7 7 10 8 7 7 8 7 6 6 4 2 2 1 2 2 1 1 2 2 3 3 3 3 3 3 3 3 3 2 2 2 2 2 2 2 3 4 2 3
Wind_Direction
62 88 215 220 206 204 189 218 258 264 266 256 255 270 282 286 268 270 275 277 279 282 283 285 278 270 281 325 208 222 216 168 131 129 146 156 165 159 136 109 111 124 151 156
53 241 237 201 184 206 223 256 270 284 279 250 280 281 278 269 253 251 259 269 275 291 309 307 304 301 265 255 230 205 203 173 158 166 164 158 151 155 149 112 92 107 131 150
200 237 220 175 185 212 235 227 247 266 319 321 315 304 288 286 274 283 273 270 272 269 282 291 304 299 303 274 250 223 205 188 178 151 127 112 98 84 87 105 115 94 128 138
236 252 211 198 216 194 252 234 233 256 304 297 4 300 290 284 303 291 285 287 278 281 283 286 292 300 282 270 259 227 205 185 169 152 149 155 156 163 176 164 148 123 121 129
242 213 196 223 229 190 229 244 214 226 217 289 255 235 284 305 290 289 287 280 278 280 284 283 283 277 275 265 207 204 170 164 163 162 166 164 164 164 141 132 129 125 94 115
244 235 208 212 228 188 187 62 68 69 99 272 224 199 277 249 242 278 290 283 280 286 295 298 306 325 344 21 61 116 153 168 154 153 158 163 162 159 152 151 152 149 146 111
294 271 240 171 106 74 108 94 10 342 315 252 208 215 251 249 237 243 267 282 287 287 289 301 307 312 322 295 285 344 164 188 154 146 147 158 158 167 176 177 173 169 171 165
264 278 235 200 189 187 194 168 177 223 244 280 261 236 254 257 264 264 265 276 291 292 289 282 263 255 250 239 237 211 198 192 164 156 157 140 143 166 180 189 179 183 191 194
215 261 301 240 211 160 165 201 180 160 224 266 264 275 297 278 300 296 292 293 281 281 286 284 276 254 243 234 226 208 202 196 176 170 152 144 157 173 177 183 176 183 181 182
191 262 279 302 47 253 166 154 125 164 209 255 276 266 252 270 276 287 281 274 273 280 282 283 276 257 244 233 222 192 194 196 188 170 167 158 180 190 178 177 190 190 186 177
179 222 291 302 214 204 156 172 178 178 196 203 262 268 229 228 240 254 265 266 263 262 262 262 269 263 249 238 215 193 189 184 184 184 176 169 174 172 176 200 207 193 183 179
164 170 257 256 257 227 195 187 160 187 235 211 230 267 272 234 259 265 270 275 273 264 261 262 264 256 241 230 220 208 199 194 197 189 180 187 179 172 189 213 220 197 192 188
176 166 310 322 341 32 240 209 192 184 183 200 216 261 300 328 313 295 283 282 282 275 272 272 262 243 234 231 225 213 206 204 196 179 175 178 180 183 200 213 220 206 207 200
217 202 213 233 259 266 273 269 249 210 224 234 233 259 291 303 299 298 289 277 272 268 265 257 250 243 234 230 230 217 207 199 185 174 176 181 186 192 206 212 218 220 214 211
151 238 246 261 270 264 263 260 248 235 233 236 252 257 271 277 277 277 277 276 270 272 267 248 239 237 234 230 231 213 203 192 179 170 173 186 184 172 169 195 221 222 218 223
212 236 263 277 266 258 266 257 247 246 245 247 262 269 268 272 278 273 267 261 261 263 261 247 239 234 230 223 220 204 196 184 166 170 182 180 172 168 174 199 205 219 223 225
216 208 244 270 284 299 267 241 230 233 227 218 243 258 280 285 279 268 258 255 257 259 259 247 239 235 231 222 205 197 191 168 149 152 163 165 164 174 206 206 162 222 224 214
205 212 226 261 282 247 253 248 218 231 251 237 254 279 285 278 283 274 254 252 264 266 258 251 245 243 242 217 186 170 157 153 152 152 166 169 163 181 190 177 194 211 216 214
204 201 209 216 242 267 289 297 252 237 269 272 275 296 312 320 317 293 270 263 262 263 260 248 233 224 220 192 162 142 132 137 142 155 181 184 172 174 181 202 218 211 164 303
185 192 201 215 237 251 271 310 293 222 264 306 297 295 308 330 307 288 311 305 298 306 301 276 181 124 133 169 142 134 132 128 159 190 201 182 168 167 185 214 205 119 94 351
251 215 215 228 244 261 285 312 13 184 277 314 297 286 290 267 261 288 306 307 316 332 348 46 94 97 106 111 122 126 126 147 196 134 101 73 72 91 99 76 62 69 62 52
207 217 220 214 233 255 306 36 205 263 301 309 302 294 291 290 293 299 311 323 352 6 20 49 84 74 49 78 111 112 126 148 90 87 79 66 59 63 63 70 49 56 68 60
218 214 218 215 238 282 289 273 282 301 302 301 300 299 297 300 301 314 328 341 359 15 24 43 89 82 53 54 95 112 33 72 86 83 71 61 55 55 62 77 73 61 63 63
266 269 249 264 272 288 289 290 300 300 294 294 298 300 300 293 307 326 338 349 2 11 24 40 70 74 49 39 52 66 46 73 86 82 69 62 61 49 49 52 58 74 87 39
260 253 265 270 285 307 298 294 297 303 308 310 313 309 305 305 309 316 322 332 354 17 32 51 75 77 50 42 43 37 49 80 84 77 66 58 60 62 47 36 21 352 291 241
243 240 252 270 281 281 288 298 300 298 302 303 308 315 316 297 280 307 319 326 356 49 57 57 63 67 54 52 42 31 42 81 93 78 64 60 59 58 53 40 19 11 354 345
Height
1497 1501 1503 1501 1502 1502 1503 1505 1505 1501 1496 1497 1494 1489 1482 1479 1479 1477 1475 1473 1472 1472 1472 1471 1471 1470 1470 1470 1470 1471 1471 1471 1472 1473 1474 1475 1476 1478 1480 1483 1484 1487 1489 1491
1501 1501 1497 1498 1500 1502 1503 1504 1503 1499 1496 1496 1493 1487 1479 1476 1475 1473 1472 1470 1469 1469 1468 1468 1468 1468 1468 1468 1468 1468 1469 1469 1470 1471 1472 1474 1475 1476 1478 1480 1482 1484 1487 1489
1498 1497 1495 1497 1499 1501 1501 1502 1500 1500 1497 1495 1494 1485 1478 1473 1472 1470 1469 1468 1467 1467 1466 1466 1466 1466 1466 1465 1466 1466 1467 1468 1468 1469 1470 1471 1473 1474 1476 1477 1479 1482 1485 1486
1497 1494 1495 1496 1497 1498 1499 1496 1497 1497 1500 1501 1498 1497 1479 1474 1472 1468 1466 1465 1465 1465 1465 1465 1465 1464 1464 1464 1465 1465 1465 1466 1466 1467 1468 1469 1470 1471 1473 1475 1477 1480 1482 1483
1494 1493 1493 1494 1493 1494 1495 1494 1496 1497 1499 1502 1500 1500 1483 1476 1471 1467 1465 1464 1463 1464 1464 1463 1463 1463 1463 1463 1463 1463 1464 1464 1465 1466 1466 1467 1468 1470 1471 1473 1475 1477 1479 1481
1492 1491 1490 1490 1489 1491 1492 1495 1497 1501 1502 1501 1496 1499 1485 1476 1469 1465 1463 1462 1462 1462 1462 1462 1462 1462 1461 1461 1462 1462 1462 1463 1464 1464 1465 1465 1466 1467 1469 1470 1472 1474 1476 1478
1492 1490 1488 1487 1490 1491 1493 1498 1504 1502 1505 1497 1493 1494 1482 1467 1465 1463 1462 1461 1460 1460 1461 1460 1460 1460 1460 1460 1460 1460 1461 1461 1462 1462 1463 1464 1464 1466 1467 1468 1469 1471 1473 1474
1495 1494 1487 1486 1487 1490 1491 1493 1500 1501 1501 1498 1493 1490 1473 1463 1462 1461 1460 1460 1459 1459 1459 1459 1459 1459 1459 1459 1459 1459 1459 1460 1460 1460 1461 1462 1463 1464 1465 1467 1467 1469 1470 1472
1496 1492 1486 1484 1484 1486 1490 1493 1492 1499 1502 1502 1491 1482 1470 1461 1460 1459 1459 1459 1458 1458 1458 1458 1458 1458 1457 1458 1458 1458 1458 1458 1458 1459 1459 1460 1461 1462 1463 1465 1466 1467 1468 1470
1494 1495 1488 1485 1485 1485 1486 1490 1497 1497 1494 1493 1485 1481 1473 1462 1459 1458 1458 1458 1457 1457 1457 1456 1456 1456 1456 1456 1456 1456 1456 1456 1457 1457 1458 1459 1460 1461 1462 1463 1464 1465 1466 1468
1493 1496 1491 1488 1486 1485 1488 1490 1490 1494 1493 1492 1489 1476 1460 1458 1456 1457 1456 1456 1456 1455 1455 1454 1454 1454 1454 1454 1454 1454 1454 1455 1455 1456 1456 1457 1458 1459 1460 1461 1461 1463 1464 1465
1494 1497 1495 1488 1482 1482 1482 1484 1488 1491 1491 1494 1492 1475 1455 1455 1454 1455 1455 1454 1454 1454 1453 1452 1452 1451 1452 1452 1452 1452 1452 1453 1453 1454 1454 1455 1456 1457 1458 1458 1459 1460 1461 1463
1494 1496 1495 1487 1486 1485 1484 1484 1486 1488 1490 1493 1490 1472 1454 1454 1453 1453 1453 1452 1452 1451 1451 1450 1449 1449 1449 1449 1449 1449 1450 1450 1451 1451 1452 1453 1454 1455 1455 1456 1457 1457 1459 1460
1491 1494 1494 1489 1483 1485 1484 1483 1484 1486 1488 1485 1479 1467 1457 1455 1453 1452 1451 1450 1449 1448 1448 1447 1447 1446 1446 1447 1447 1447 1447 1448 1449 1449 1450 1451 1452 1452 1453 1453 1454 1455 1456 1457
1490 1492 1490 1486 1484 1484 1481 1479 1479 1480 1477 1476 1467 1464 1456 1454 1452 1450 1449 1448 1447 1445 1445 1444 1444 1444 1444 1444 1444 1444 1445 1445 1446 1447 1448 1449 1449 1450 1450 1451 1451 1452 1453 1454
1490 1490 1489 1486 1481 1480 1478 1473 1472 1471 1470 1468 1464 1458 1452 1451 1449 1447 1446 1445 1444 1442 1441 1441 1441 1441 1441 1441 1441 1442 1442 1443 1443 1444 1445 1446 1447 1447 1448 1449 1449 1449 1450 1450
1490 1490 1489 1485 1480 1477 1473 1464 1463 1463 1460 1460 1458 1452 1449 1448 1446 1444 1443 1442 1440 1439 1439 1438 1437 1438 1438 1438 1438 1439 1439 1440 1441 1442 1443 1444 1444 1445 1445 1446 1446 1446 1446 1447
1486 1487 1487 1484 1482 1480 1461 1455 1455 1456 1454 1454 1452 1449 1448 1446 1443 1441 1439 1439 1437 1437 1436 1435 1435 1435 1435 1435 1436 1436 1437 1438 1439 1440 1440 1441 1442 1442 1443 1443 1443 1443 1443 1444
1478 1481 1483 1483 1480 1468 1459 1456 1456 1455 1452 1451 1450 1448 1446 1443 1440 1437 1436 1435 1435 1434 1433 1433 1432 1433 1433 1433 1433 1434 1434 1435 1436 1437 1438 1439 1439 1440 1440 1440 1440 1441 1440 1441
1476 1477 1481 1480 1475 1466 1458 1454 1451 1452 1451 1448 1447 1445 1444 1443 1443 1436 1434 1433 1432 1431 1431 1430 1430 1430 1431 1431 1431 1431 1432 1433 1434 1435 1436 1437 1437 1437 1438 1438 1438 1438 1438 1438
1477 1478 1478 1476 1472 1462 1457 1453 1451 1456 1451 1445 1443 1442 1441 1441 1439 1436 1433 1431 1430 1429 1429 1428 1428 1428 1429 1429 1429 1430 1430 1431 1432 1433 1434 1435 1435 1435 1435 1436 1436 1436 1436 1436
1473 1475 1473 1472 1471 1463 1454 1453 1454 1451 1447 1444 1441 1440 1438 1436 1434 1432 1430 1429 1428 1427 1427 1426 1426 1427 1427 1428 1428 1428 1429 1429 1430 1431 1432 1432 1433 1433 1434 1434 1434 1434 1434 1434
1469 1467 1465 1464 1460 1453 1451 1451 1449 1447 1445 1442 1440 1438 1436 1434 1432 1430 1429 1428 1427 1427 1426 1426 1426 1426 1426 1427 1427 1427 1428 1428 1429 1429 1430 1431 1431 1432 1432 1432 1432 1432 1432 1432
1465 1462 1462 1460 1453 1451 1449 1448 1446 1444 1442 1440 1438 1436 1434 1432 1430 1429 1428 1427 1426 1426 1426 1426 1425 1425 1426 1426 1426 1426 1427 1427 1427 1428 1429 1429 1430 1430 1430 1431 1431 1430 1430 1430
1462 1462 1461 1457 1452 1448 1445 1444 1443 1441 1439 1436 1434 1433 1431 1430 1429 1428 1427 1426 1426 1426 1426 1425 1425 1425 1425 1426 1426 1426 1426 1427 1427 1427 1428 1428 1428 1428 1429 1429 1429 1429 1429 1429
1459 1459 1458 1453 1449 1448 1443 1441 1440 1438 1435 1433 1432 1430 1429 1428 1427 1426 1426 1425 1425 1425 1425 1425 1425 1425 1425 1426 1426 1426 1426 1426 1426 1426 1427 1427 1427 1427 1427 1427 1427 1427 1428 1427